Location: D�derode
(51.8092°N, 10.1065°E)
Time: 20:31:25
(UTC+00:00)

Cosmos 1356 - Pass Details

Date: 01 December 2020
Orbit: 440 x 444 km, 81.1° (Epoch: 25 January)

Event Time Altitude Azimuth Distance (km) Brightness Sun altitude
Rises 15:54:24 0° 348° (NNW) 2,455 7.0 -6.3°
Reaches altitude 10° 15:56:29 10° 351° (N) 1,580 6.0 -6.6°
Maximum altitude 15:59:55 73° 76° (ENE) 472 3.3 -7.1°
Drops below altitude 10° 16:03:21 10° 162° (SSE) 1,568 6.3 -7.6°
Sets 16:05:24 0° 164° (SSE) 2,434 7.3 -7.9°
